[[{"header":{"parameterUnit":"m.s-1","parameterCategory":2,"la1":30.2991,"la2":30.254,"lo1":-89.0895,"lo2":-89.0444,"dy":0.0017,"dx":0.0017,"nx":28,"ny":28,"refTime":"2023-10-29T09:00:00:Z","depth":"0","parameterNumber":2,"parameterNumberName":"U-component_of_CURRENTS"},"data":[0,0,0,0,0,0,0,0,0,0,0,0,0,0,0,0,0,0,0,0,0,0,0,0,0,0,0,0,0,0,0,0,0,0,0,0,0,0,0,0,0,0,0,0,0,0,0,0,0,0,0,0,0,0,0,0,0,0,0.2505,0.2506,0,0.2563,0.2563,0.2564,0.2581,0.2581,0.2581,0.2581,0.2613,0.2613,0.2614,0,0,0,0,0,0,0,0,0,0,0,0,0,0.2414,0.2416,0.2505,0.2506,0.2507,0.2563,0.2563,0.2564,0.2581,0.2581,0.2581,0.2581,0.2612,0.2613,0.2614,0,0,0,0,0,0,0,0,0,0,0,0,0,0.2457,0.2416,0.2504,0.2525,0.2528,0.2563,0.2563,0.2564,0.2581,0.2581,0.2581,0.2581,0.2612,0.2613,0.2614,0.2618,0,0,0.2618,0.2618,0,0,0,0,0,0,0,0,0.2455,0.246,0.2521,0.2524,0.2527,0.2569,0.2543,0.2582,0.2581,0.2557,0.2581,0.2582,0.2598,0.26,0.2605,0.262,0.2621,0.2618,0.2618,0.2619,0.2619,0,0,0,0,0,0,0,0.2452,0.2458,0.2523,0.2523,0.2526,0.2534,0.254,0.255,0.2572,0.2559,0.2561,0.2574,0.2599,0.2604,0.2606,0.2622,0.2618,0.2619,0.2619,0.262,0.2662,0.2662,0,0,0,0,0,0,0.2453,0.2455,0.2522,0.2526,0.2495,0.2536,0.2542,0.2552,0.2573,0.2577,0.2574,0.2575,0.2602,0.2605,0.2607,0.2643,0.2619,0.262,0.2621,0.2661,0.2662,0.2662,0,0,0,0,0,0,0.245,0.2458,0.2519,0.2495,0.2504,0.2538,0.2548,0.2553,0.2564,0.2585,0.2589,0.2581,0.2602,0.2606,0.2626,0.2643,0.262,0.2621,0.2661,0.2661,0.2662,0.2696,0,0,0,0,0,0,0.2447,0.2457,0.2462,0.2495,0.2506,0.2545,0.2549,0.2554,0.2573,0.2575,0.2593,0.2595,0.2603,0.2624,0.2627,0.2644,0.2622,0.266,0.2661,0.2662,0.2694,0.2697,0.27,0,0,0,0,0,0.2444,0.2453,0.2462,0.2471,0.2513,0.2546,0.2552,0.2573,0.2574,0.2582,0.2595,0.2595,0.2631,0.2626,0.2629,0.2647,0.266,0.2661,0.2662,0.2693,0.2697,0.27,0,0,0,0,0,0,0.2416,0.2458,0.2468,0.2489,0.2518,0.2551,0.2562,0.2575,0.2591,0.2591,0.2603,0.2607,0.2631,0.2631,0.2624,0.266,0.2645,0.2646,0.2667,0.2671,0.2674,0.2665,0.2623,0,0,0,0,0,0.2413,0.243,0.2471,0.2486,0.2501,0.253,0.2546,0.2562,0.2584,0.2591,0.2605,0.2618,0.2636,0.2647,0.2659,0.2679,0.2703,0.2691,0.2694,0.2697,0.2691,0.2737,0.2744,0.2666,0.2666,0.2666,0,0,0.2407,0.2432,0.2442,0.2482,0.2503,0.2533,0.2539,0.2566,0.259,0.2592,0.262,0.263,0.2643,0.2669,0.268,0.2673,0.274,0.2698,0.2701,0.2693,0.2738,0.2746,0.2753,0.2666,0.2666,0.2666,0,0,0.2408,0.2425,0.2443,0.2471,0.2511,0.2532,0.2541,0.2577,0.2592,0.2622,0.2631,0.2648,0.2674,0.269,0.2701,0.2725,0.2754,0.2732,0.2744,0.2789,0.2797,0.2803,0.2881,0.2894,0.2735,0.2735,0.2735,0,0.2399,0.2431,0.2453,0.2482,0.2508,0.2533,0.2562,0.2583,0.2621,0.2641,0.2633,0.2679,0.2684,0.2725,0.2729,0.2733,0.2775,0.2732,0.2795,0.2801,0.2807,0.2885,0.2899,0.2737,0.2736,0.2736,0.2736,0,0.2421,0.2448,0.2461,0.2506,0.2533,0.2561,0.26,0.2625,0.2641,0.2667,0.2705,0.2713,0.2746,0.2746,0.2743,0.2789,0.2814,0.2795,0.2788,0.2818,0.2898,0.2912,0.2739,0.2738,0.2738,0.2737,0,0,0.2397,0.2464,0.2468,0.2497,0.255,0.2576,0.2616,0.2666,0.2698,0.2723,0.2766,0.2781,0.279,0.28,0.2805,0.2825,0.2907,0.2826,0.2827,0.2909,0.3044,0.3144,0.3169,0.2906,0.2907,0.2909,0.3097,0,0.2409,0.2463,0.2493,0.2545,0.258,0.2618,0.2657,0.2704,0.2733,0.278,0.2797,0.2834,0.2813,0.2831,0.2854,0.2896,0.2939,0.2859,0.2997,0.3001,0.3091,0.3186,0.3116,0.3284,0.3111,0.3113,0.3115,0,0.2421,0.2461,0.2509,0.2581,0.2598,0.263,0.2697,0.2735,0.2802,0.2826,0.2867,0.2891,0.2947,0.2903,0.3013,0.2971,0.3008,0.3027,0.3035,0.3121,0.3127,0.3218,0.3316,0.3248,0.3136,0.3134,0.3133,0,0.24,0.2471,0.2508,0.2532,0.2613,0.2642,0.2683,0.2749,0.2797,0.2857,0.2918,0.2966,0.3037,0.3064,0.315,0.3082,0.328,0.3195,0.3325,0.3334,0.3295,0.3298,0.3342,0.326,0.326,0.3259,0.3259,0,0.24,0.2432,0.2502,0.2526,0.2575,0.2636,0.2692,0.2734,0.2821,0.2899,0.2947,0.3045,0.308,0.3208,0.3212,0.3373,0.3356,0.336,0.3396,0.3311,0.3313,0.3267,0.3203,0.3266,0.3265,0.3263,0.3262,0,0.2363,0.2411,0.246,0.2542,0.2564,0.2597,0.2698,0.2746,0.2843,0.2952,0.2987,0.315,0.3335,0.3414,0.351,0.3513,0.3524,0.3645,0.3574,0.3597,0.3603,0.3544,0.3488,0.337,0.3789,0.3793,0.3796,0,0.2345,0.2367,0.2447,0.2474,0.2507,0.2572,0.2618,0.2721,0.2785,0.303,0.3089,0.3332,0.3477,0.373,0.3793,0.3893,0.3712,0.3868,0.3698,0.3639,0.3597,0.3393,0.3278,0.367,0.3672,0.3673,0.3675,0,0.2307,0.2333,0.2371,0.2428,0.2475,0.253,0.2614,0.2669,0.2823,0.2961,0.3172,0.3317,0.3646,0.3762,0.3964,0.3984,0.3702,0.3904,0.3834,0.3521,0.3305,0.3198,0.3536,0.3688,0.3687,0.3686,0.3685,0.3684,0.2261,0.2273,0.2322,0.2372,0.2423,0.2468,0.2491,0.2613,0.2727,0.2918,0.3135,0.3351,0.3646,0.3931,0.3945,0.3987,0.3847,0.3859,0.3804,0.3612,0.3448,0.3861,0.4056,0.4057,0.4058,0.4058,0.4059,0,0.2199,0.2226,0.2268,0.2316,0.2341,0.2396,0.2471,0.2492,0.2599,0.2841,0.3027,0.3386,0.3588,0.3789,0.3992,0.3891,0.3611,0.3789,0.3433,0.3327,0.3715,0.3662,0.3791,0.3791,0.3791,0.3791,0.3791,0.3791,0.2165,0.2177,0.2205,0.2217,0.2252,0.2241,0.226,0.2324,0.2461,0.2689,0.2917,0.3136,0.3555,0.3879,0.3911,0.3804,0.3444,0.3355,0.326,0.3516,0.3514,0.3511,0.3446,0.3528,0.3528,0.2723,0.2717,0.2713]},{"header":{"parameterUnit":"m.s-1","parameterCategory":2,"la1":30.2991,"la2":30.254,"lo1":-89.0895,"lo2":-89.0444,"dy":0.0017,"dx":0.0017,"nx":28,"ny":28,"refTime":"2023-10-29T09:00:00:Z","depth":"0","parameterNumber":3,"parameterNumberName":"V-component_of_CURRENTS"},"data":[0,0,0,0,0,0,0,0,0,0,0,0,0,0,0,0,0,0,0,0,0,0,0,0,0,0,0,0,0,0,0,0,0,0,0,0,0,0,0,0,0,0,0,0,0,0,0,0,0,0,0,0,0,0,0,0,0,0,-0.0459,-0.046,0,-0.0528,-0.0528,-0.0529,-0.0566,-0.0567,-0.0567,-0.0567,-0.0638,-0.0639,-0.0641,0,0,0,0,0,0,0,0,0,0,0,0,0,-0.0364,-0.0365,-0.0459,-0.046,-0.0461,-0.0528,-0.0529,-0.0529,-0.0566,-0.0567,-0.0567,-0.0567,-0.0637,-0.0639,-0.0641,0,0,0,0,0,0,0,0,0,0,0,0,0,-0.0414,-0.0365,-0.0459,-0.0489,-0.0493,-0.0528,-0.0529,-0.0529,-0.0566,-0.0567,-0.0567,-0.0568,-0.0636,-0.0639,-0.0641,-0.0647,0,0,-0.0649,-0.065,0,0,0,0,0,0,0,0,-0.0411,-0.0417,-0.0484,-0.0487,-0.0491,-0.0541,-0.0521,-0.057,-0.0566,-0.0536,-0.0567,-0.0568,-0.0607,-0.0611,-0.062,-0.0651,-0.0654,-0.0649,-0.065,-0.0651,-0.0652,0,0,0,0,0,0,0,-0.0407,-0.0414,-0.0484,-0.0485,-0.049,-0.0501,-0.0508,-0.053,-0.0566,-0.0539,-0.0542,-0.0553,-0.0608,-0.0618,-0.0622,-0.0655,-0.0649,-0.0651,-0.0652,-0.0653,-0.0724,-0.0724,0,0,0,0,0,0,-0.0403,-0.0411,-0.0482,-0.0486,-0.0454,-0.0503,-0.0511,-0.0523,-0.0566,-0.0574,-0.0553,-0.0555,-0.0614,-0.0619,-0.0625,-0.0653,-0.0651,-0.0653,-0.0655,-0.0723,-0.0724,-0.0724,0,0,0,0,0,0,-0.0401,-0.0409,-0.0479,-0.0452,-0.0462,-0.0504,-0.0517,-0.0524,-0.0535,-0.0577,-0.0585,-0.0558,-0.0614,-0.0622,-0.0648,-0.0655,-0.0655,-0.0657,-0.0723,-0.0724,-0.0724,-0.0697,0,0,0,0,0,0,-0.0397,-0.0407,-0.041,-0.0452,-0.0463,-0.0492,-0.0517,-0.0525,-0.0543,-0.0546,-0.0584,-0.0591,-0.0615,-0.0644,-0.065,-0.0658,-0.0659,-0.0722,-0.0723,-0.0724,-0.0697,-0.0697,-0.0696,0,0,0,0,0,-0.0394,-0.0388,-0.041,-0.0418,-0.0468,-0.0492,-0.0498,-0.0528,-0.0542,-0.0541,-0.0574,-0.059,-0.0654,-0.0646,-0.0653,-0.0662,-0.0722,-0.0723,-0.0724,-0.0698,-0.0697,-0.0696,0,0,0,0,0,0,-0.0343,-0.0393,-0.0417,-0.0427,-0.0457,-0.0499,-0.0499,-0.0524,-0.0549,-0.0551,-0.0592,-0.0601,-0.0627,-0.0648,-0.0639,-0.0686,-0.0692,-0.0694,-0.0669,-0.0669,-0.0668,-0.0648,-0.0661,0,0,0,0,0,-0.0336,-0.0348,-0.0397,-0.0404,-0.0417,-0.0459,-0.0472,-0.0494,-0.0525,-0.0536,-0.0568,-0.0603,-0.0637,-0.0654,-0.0681,-0.0703,-0.0716,-0.0716,-0.0715,-0.0714,-0.0704,-0.0745,-0.0747,-0.0728,-0.0728,-0.0728,0,0,-0.0319,-0.0347,-0.0355,-0.0394,-0.0418,-0.043,-0.0466,-0.048,-0.0492,-0.0539,-0.0558,-0.0597,-0.0641,-0.067,-0.0684,-0.0689,-0.0724,-0.0716,-0.0715,-0.0704,-0.0747,-0.0748,-0.075,-0.0728,-0.0728,-0.0728,0,0,-0.0282,-0.0315,-0.031,-0.0334,-0.037,-0.04,-0.0403,-0.0446,-0.0466,-0.0492,-0.0535,-0.0578,-0.062,-0.0661,-0.0687,-0.0697,-0.0716,-0.0709,-0.0693,-0.0734,-0.0735,-0.0737,-0.0737,-0.0739,-0.0712,-0.0712,-0.0712,0,-0.0256,-0.0265,-0.031,-0.0312,-0.0325,-0.0384,-0.0378,-0.041,-0.0457,-0.047,-0.049,-0.0574,-0.0616,-0.0664,-0.0676,-0.0695,-0.0707,-0.0691,-0.0732,-0.0734,-0.0736,-0.0736,-0.0739,-0.0711,-0.0711,-0.0711,-0.0711,0,-0.022,-0.0229,-0.0224,-0.0252,-0.0271,-0.0273,-0.0327,-0.0346,-0.0382,-0.042,-0.0469,-0.0537,-0.0583,-0.0617,-0.0653,-0.0696,-0.0694,-0.0723,-0.073,-0.0736,-0.0736,-0.0739,-0.0709,-0.071,-0.071,-0.071,0,0,-0.0155,-0.0191,-0.0188,-0.0191,-0.0238,-0.0246,-0.0267,-0.0301,-0.0303,-0.0377,-0.0385,-0.0486,-0.0528,-0.056,-0.0621,-0.0673,-0.0706,-0.0704,-0.0707,-0.0695,-0.0765,-0.0695,-0.0691,-0.0745,-0.0746,-0.0747,-0.0752,0,-0.0109,-0.0094,-0.0129,-0.0117,-0.0114,-0.017,-0.0177,-0.0219,-0.0261,-0.0284,-0.0383,-0.0415,-0.0506,-0.0523,-0.0596,-0.0668,-0.0715,-0.0699,-0.0768,-0.0769,-0.07,-0.0694,-0.0661,-0.0658,-0.0755,-0.0756,-0.0756,0,-0.0059,-0.0057,-0.0031,-0.0044,-0.0046,-0.0046,-0.0061,-0.0077,-0.0137,-0.017,-0.0242,-0.0305,-0.0395,-0.0465,-0.0606,-0.059,-0.0673,-0.0741,-0.0743,-0.0688,-0.0705,-0.0672,-0.066,-0.0876,-0.0761,-0.076,-0.076,0,0.0016,0.0013,0.0039,0.0032,0.0008,0.0019,0.0008,-0.0034,-0.0023,-0.009,-0.0072,-0.0214,-0.0237,-0.039,-0.0524,-0.0568,-0.0653,-0.0729,-0.0746,-0.074,-0.0729,-0.072,-0.0925,-0.0828,-0.0828,-0.0828,-0.0828,0,0.0079,0.0099,0.0081,0.0095,0.0142,0.0096,0.0142,0.0108,0.0098,0.0151,0.0001,0.0039,-0.022,-0.0294,-0.0466,-0.058,-0.0606,-0.0726,-0.0739,-0.0715,-0.0705,-0.0905,-0.103,-0.0828,-0.0828,-0.0828,-0.0828,0,0.0158,0.0141,0.0173,0.017,0.0181,0.0215,0.0247,0.0287,0.0258,0.0333,0.0329,0.0237,0.0157,-0.007,-0.0278,-0.0452,-0.07,-0.0639,-0.0566,-0.057,-0.0804,-0.0927,-0.1093,-0.1182,-0.0675,-0.0673,-0.0672,0,0.0199,0.0224,0.0247,0.0287,0.0294,0.0339,0.0391,0.0369,0.0429,0.0491,0.0558,0.0505,0.0523,0.025,-0.0071,-0.0339,-0.0585,-0.0512,-0.061,-0.0796,-0.0945,-0.1039,-0.1111,-0.0586,-0.0584,-0.0582,-0.0581,0,0.0285,0.0291,0.0321,0.0407,0.0467,0.0532,0.0607,0.0686,0.0713,0.0817,0.097,0.1001,0.076,0.0526,0.0131,-0.0098,-0.0651,-0.0484,-0.0724,-0.0918,-0.099,-0.1086,-0.0584,-0.0566,-0.0567,-0.0569,-0.0569,-0.057,0.0358,0.0403,0.0453,0.0539,0.0614,0.0735,0.084,0.0953,0.1117,0.1319,0.1319,0.1444,0.1023,0.0511,0.0169,-0.0472,-0.0509,-0.0695,-0.0832,-0.0913,-0.0999,-0.0425,-0.0392,-0.0392,-0.0393,-0.0393,-0.0393,0,0.0455,0.0504,0.0588,0.0698,0.0818,0.0827,0.1,0.1137,0.1398,0.1593,0.1766,0.1666,0.1153,0.055,-0.0287,-0.075,-0.0977,-0.1031,-0.1222,-0.1284,-0.0816,-0.0814,-0.0812,-0.0812,-0.0812,-0.0811,-0.0811,-0.0811,0.0514,0.0611,0.0653,0.0862,0.0957,0.1145,0.1268,0.1481,0.1655,0.1955,0.2069,0.2102,0.1632,0.0132,-0.0952,-0.1222,-0.1568,-0.1606,-0.1797,-0.1552,-0.1534,-0.1517,-0.1548,-0.17,-0.1701,-0.2214,-0.222,-0.2224]}],[{"header":{"parameterUnit":"m.s-1","parameterCategory":2,"la1":30.2991,"la2":30.254,"lo1":-89.0895,"lo2":-89.0444,"dy":0.0017,"dx":0.0017,"nx":28,"ny":28,"refTime":"2023-10-29T09:00:00:Z","depth":"2","parameterNumber":2,"parameterNumberName":"U-component_of_CURRENTS"},"data":[0,0,0,0,0,0,0,0,0,0,0,0,0,0,0,0,0,0,0,0,0,0,0,0,0,0,0,0,0,0,0,0,0,0,0,0,0,0,0,0,0,0,0,0,0,0,0,0,0,0,0,0,0,0,0,0,0,0,0.2389,0.2389,0,0.2423,0.2424,0.2424,0.2456,0.2456,0.2457,0.2457,0.2509,0.251,0.2511,0,0,0,0,0,0,0,0,0,0,0,0,0,0.2351,0.2351,0.2389,0.2389,0.2389,0.2423,0.2424,0.2424,0.2456,0.2456,0.2457,0.2457,0.2508,0.251,0.2511,0,0,0,0,0,0,0,0,0,0,0,0,0,0.2375,0.2352,0.2389,0.2408,0.241,0.2423,0.2424,0.2425,0.2456,0.2456,0.2457,0.2457,0.2508,0.251,0.2511,0.2513,0,0,0.2516,0.2517,0,0,0,0,0,0,0,0,0.2374,0.2377,0.2405,0.2407,0.2409,0.2435,0.243,0.2455,0.2456,0.244,0.2457,0.2457,0.2485,0.2488,0.2495,0.2515,0.2518,0.2517,0.2518,0.2518,0.2519,0,0,0,0,0,0,0,0.2372,0.2376,0.2403,0.2405,0.2408,0.2416,0.242,0.2434,0.246,0.2441,0.2443,0.2445,0.2486,0.2493,0.2497,0.2518,0.2516,0.2518,0.2519,0.252,0.2587,0.2587,0,0,0,0,0,0,0.2365,0.2374,0.2402,0.2404,0.2391,0.2416,0.2421,0.2427,0.246,0.2465,0.2445,0.2447,0.249,0.2495,0.2499,0.2562,0.2518,0.252,0.2521,0.2586,0.2587,0.2588,0,0,0,0,0,0,0.2365,0.2368,0.2401,0.2389,0.2394,0.2416,0.2423,0.2428,0.2453,0.2463,0.2468,0.2468,0.2491,0.2496,0.2526,0.2562,0.2521,0.2522,0.2585,0.2586,0.2587,0.2651,0,0,0,0,0,0,0.2363,0.2367,0.2376,0.2389,0.2394,0.2429,0.2423,0.2428,0.2452,0.2456,0.2484,0.2488,0.2492,0.2524,0.2528,0.2564,0.2523,0.2584,0.2586,0.2587,0.2648,0.2654,0.2659,0,0,0,0,0,0.2362,0.2373,0.2376,0.238,0.2403,0.243,0.2434,0.2451,0.2453,0.2475,0.2486,0.2488,0.2536,0.2526,0.253,0.2567,0.2583,0.2585,0.2587,0.2645,0.2653,0.2659,0,0,0,0,0,0,0.2349,0.2377,0.2381,0.2397,0.242,0.2435,0.2452,0.2462,0.2487,0.249,0.2498,0.2504,0.2544,0.2541,0.2529,0.2588,0.256,0.2563,0.2603,0.261,0.2616,0.2639,0.2525,0,0,0,0,0,0.2352,0.2379,0.2395,0.2411,0.2421,0.2439,0.2453,0.2466,0.2484,0.2497,0.2514,0.2529,0.2552,0.2569,0.2583,0.2616,0.2634,0.2641,0.2647,0.2652,0.2672,0.2712,0.2724,0.2594,0.2594,0.2593,0,0,0.2357,0.2369,0.2388,0.2413,0.2428,0.2451,0.245,0.2477,0.2509,0.2497,0.2545,0.2552,0.2563,0.2602,0.262,0.2608,0.2701,0.2654,0.2658,0.2677,0.2715,0.2728,0.274,0.2595,0.2594,0.2594,0,0,0.2363,0.2386,0.2404,0.243,0.2455,0.247,0.2482,0.2508,0.2537,0.2577,0.2576,0.2607,0.2637,0.2658,0.267,0.2716,0.2728,0.2715,0.2772,0.281,0.2822,0.2832,0.2888,0.2903,0.2721,0.2721,0.2721,0,0.2354,0.2385,0.2414,0.2432,0.2456,0.2481,0.2503,0.254,0.2575,0.2611,0.2602,0.2664,0.267,0.2729,0.2744,0.2734,0.2759,0.2746,0.282,0.283,0.284,0.2895,0.291,0.2724,0.2724,0.2724,0.2723,0,0.2379,0.2404,0.2418,0.2456,0.2485,0.2515,0.2559,0.2603,0.2635,0.2672,0.2743,0.2751,0.2792,0.2796,0.2788,0.2859,0.2858,0.2822,0.2807,0.2858,0.2911,0.2927,0.2729,0.2728,0.2727,0.2726,0,0,0.2339,0.2418,0.2421,0.2449,0.2504,0.2529,0.2596,0.2666,0.2724,0.2772,0.2846,0.2886,0.29,0.2914,0.2907,0.2942,0.3031,0.2917,0.2918,0.2983,0.3138,0.3084,0.3095,0.3006,0.3009,0.3011,0.3155,0,0.2339,0.2382,0.2428,0.248,0.2505,0.257,0.2626,0.2701,0.2773,0.2854,0.2904,0.2962,0.2944,0.2962,0.3001,0.3022,0.3072,0.2997,0.3071,0.3074,0.3027,0.311,0.289,0.2994,0.3169,0.3172,0.3174,0,0.2334,0.2367,0.2416,0.2497,0.2514,0.2557,0.2667,0.2726,0.2855,0.2909,0.2996,0.3038,0.3123,0.3075,0.3181,0.3135,0.3152,0.3163,0.3168,0.3108,0.3048,0.2967,0.3015,0.3199,0.3197,0.3195,0.3193,0,0.2288,0.2357,0.2401,0.2432,0.2523,0.2571,0.2627,0.2746,0.282,0.2955,0.3025,0.3124,0.3183,0.3228,0.3288,0.3235,0.34,0.332,0.3297,0.3294,0.3118,0.3094,0.3395,0.3395,0.3395,0.3394,0.3394,0,0.2268,0.2299,0.2389,0.2417,0.2474,0.2547,0.2635,0.2714,0.2843,0.2936,0.3048,0.313,0.3223,0.3333,0.3346,0.3403,0.3458,0.3342,0.3334,0.3133,0.3111,0.3282,0.3267,0.34,0.3399,0.3397,0.3397,0,0.2211,0.2271,0.2325,0.2425,0.2456,0.25,0.2628,0.2697,0.2823,0.2953,0.3,0.3175,0.3293,0.3403,0.3496,0.348,0.3527,0.3526,0.3304,0.3266,0.3376,0.3362,0.3499,0.3498,0.3498,0.3497,0.3497,0,0.2186,0.221,0.2316,0.235,0.2401,0.2478,0.2528,0.2663,0.274,0.2964,0.3014,0.32,0.3289,0.3455,0.3478,0.354,0.3555,0.3346,0.3184,0.3412,0.3391,0.3378,0.3365,0.2988,0.2984,0.298,0.2977,0,0.2133,0.218,0.2223,0.2294,0.2355,0.242,0.2509,0.2562,0.2724,0.2832,0.2971,0.307,0.3259,0.3228,0.3344,0.3326,0.3314,0.3269,0.3592,0.2986,0.2939,0.2915,0.2918,0.2944,0.2948,0.295,0.2952,0.2953,0.2082,0.2101,0.2164,0.2223,0.2284,0.2331,0.2356,0.2454,0.2535,0.2666,0.2818,0.2895,0.3002,0.3036,0.2995,0.2983,0.3164,0.3021,0.3029,0.3042,0.2947,0.29,0.2883,0.2886,0.2888,0.289,0.2892,0,0.2007,0.2043,0.2091,0.2147,0.2165,0.2246,0.2313,0.2305,0.2344,0.2507,0.2598,0.247,0.2508,0.2608,0.2558,0.2585,0.252,0.2465,0.2359,0.2397,0.243,0.2297,0.2065,0.2061,0.2058,0.2055,0,0,0.1971,0.1975,0.2002,0.2,0.2048,0.2052,0.2069,0.2072,0.215,0.2139,0.2192,0.2415,0.2566,0.2274,0.2269,0.216,0.2244,0.2081,0.2763,0.2679,0.2706,0.2791,0.2637,0,0,0,0,0]},{"header":{"parameterUnit":"m.s-1","parameterCategory":2,"la1":30.2991,"la2":30.254,"lo1":-89.0895,"lo2":-89.0444,"dy":0.0017,"dx":0.0017,"nx":28,"ny":28,"refTime":"2023-10-29T09:00:00:Z","depth":"2","parameterNumber":3,"parameterNumberName":"V-component_of_CURRENTS"},"data":[0,0,0,0,0,0,0,0,0,0,0,0,0,0,0,0,0,0,0,0,0,0,0,0,0,0,0,0,0,0,0,0,0,0,0,0,0,0,0,0,0,0,0,0,0,0,0,0,0,0,0,0,0,0,0,0,0,0,-0.0073,-0.0074,0,-0.0126,-0.0127,-0.0128,-0.0184,-0.0185,-0.0185,-0.0186,-0.0315,-0.0318,-0.0321,0,0,0,0,0,0,0,0,0,0,0,0,0,-0.003,-0.0031,-0.0073,-0.0074,-0.0074,-0.0126,-0.0127,-0.0128,-0.0184,-0.0185,-0.0185,-0.0186,-0.0314,-0.0318,-0.0321,0,0,0,0,0,0,0,0,0,0,0,0,0,-0.0064,-0.0031,-0.0073,-0.0107,-0.011,-0.0126,-0.0127,-0.0128,-0.0184,-0.0185,-0.0186,-0.0187,-0.0313,-0.0317,-0.0322,-0.0329,0,0,-0.0335,-0.0337,0,0,0,0,0,0,0,0,-0.0062,-0.0066,-0.0102,-0.0105,-0.0109,-0.0148,-0.0159,-0.0199,-0.0184,-0.0158,-0.0186,-0.0187,-0.0264,-0.0273,-0.0282,-0.0335,-0.0341,-0.0335,-0.0338,-0.034,-0.0341,0,0,0,0,0,0,0,-0.006,-0.0064,-0.0096,-0.0102,-0.0106,-0.0123,-0.0129,-0.0167,-0.0208,-0.016,-0.0164,-0.0167,-0.0267,-0.0278,-0.0286,-0.0343,-0.0335,-0.0339,-0.0341,-0.0343,-0.0423,-0.0422,0,0,0,0,0,0,-0.0048,-0.0062,-0.0094,-0.0098,-0.0085,-0.0123,-0.0129,-0.0136,-0.0206,-0.0217,-0.0166,-0.0169,-0.027,-0.0281,-0.0291,-0.032,-0.0339,-0.0344,-0.0346,-0.0423,-0.0422,-0.0422,0,0,0,0,0,0,-0.0047,-0.0051,-0.0092,-0.0079,-0.0085,-0.0122,-0.0129,-0.0136,-0.0161,-0.0209,-0.0222,-0.0184,-0.0271,-0.0285,-0.0322,-0.0326,-0.0345,-0.0349,-0.0424,-0.0423,-0.0422,-0.037,0,0,0,0,0,0,-0.0046,-0.005,-0.0053,-0.0078,-0.0086,-0.0103,-0.0128,-0.0137,-0.0159,-0.0165,-0.0229,-0.0241,-0.0273,-0.0315,-0.0326,-0.0332,-0.0353,-0.0424,-0.0423,-0.0422,-0.0372,-0.0368,-0.0364,0,0,0,0,0,-0.0044,-0.0039,-0.0052,-0.0056,-0.0088,-0.0103,-0.0108,-0.0139,-0.0159,-0.0166,-0.0203,-0.024,-0.0317,-0.0318,-0.0331,-0.0338,-0.0425,-0.0424,-0.0422,-0.0374,-0.0369,-0.0364,0,0,0,0,0,0,-0.0006,-0.0044,-0.006,-0.0063,-0.0083,-0.0112,-0.0116,-0.0141,-0.0176,-0.0181,-0.0236,-0.025,-0.0281,-0.0314,-0.0313,-0.0356,-0.0377,-0.0378,-0.0335,-0.0331,-0.0326,-0.0381,-0.0356,0,0,0,0,0,-0.0,-0.0021,-0.0046,-0.005,-0.0057,-0.009,-0.0101,-0.012,-0.015,-0.0167,-0.0212,-0.0253,-0.0283,-0.0311,-0.034,-0.037,-0.0403,-0.0382,-0.0377,-0.0373,-0.0425,-0.0441,-0.0443,-0.0419,-0.0419,-0.0419,0,0,0.0003,-0.0009,-0.0028,-0.0045,-0.0063,-0.0062,-0.01,-0.0111,-0.0119,-0.0175,-0.0205,-0.024,-0.0285,-0.0309,-0.0328,-0.0343,-0.0389,-0.0372,-0.0368,-0.0424,-0.044,-0.0443,-0.0445,-0.0418,-0.0418,-0.0418,0,0,0.0029,0.0002,0.0,-0.0014,-0.0029,-0.0045,-0.0049,-0.0082,-0.0107,-0.0137,-0.017,-0.0225,-0.0266,-0.0311,-0.0336,-0.0333,-0.0358,-0.0317,-0.0353,-0.0364,-0.0367,-0.037,-0.0379,-0.0383,-0.0322,-0.0322,-0.0322,0,0.0048,0.0041,0.0001,0.0011,0.0007,-0.0035,-0.0022,-0.0051,-0.0093,-0.0116,-0.0141,-0.0232,-0.0281,-0.0326,-0.0336,-0.0331,-0.0327,-0.0364,-0.036,-0.0364,-0.0368,-0.0377,-0.0382,-0.032,-0.032,-0.032,-0.0321,0,0.0069,0.0069,0.0073,0.0065,0.0057,0.0059,0.0026,0.0005,-0.0035,-0.0075,-0.0138,-0.0214,-0.0278,-0.029,-0.0328,-0.0373,-0.0355,-0.0341,-0.0374,-0.0367,-0.0376,-0.0383,-0.0316,-0.0317,-0.0318,-0.0318,0,0,0.011,0.0091,0.0095,0.0103,0.0085,0.0087,0.0074,0.0046,0.0032,-0.0051,-0.0088,-0.0198,-0.0261,-0.0298,-0.0342,-0.0394,-0.0423,-0.0391,-0.0393,-0.0404,-0.0432,-0.0412,-0.0418,-0.0382,-0.0383,-0.0385,-0.0413,0,0.0148,0.0182,0.0155,0.0182,0.0198,0.0155,0.0159,0.0123,0.0065,0.0019,-0.0103,-0.0149,-0.0248,-0.0273,-0.035,-0.0396,-0.0444,-0.0418,-0.0438,-0.044,-0.0426,-0.0427,-0.0404,-0.0427,-0.042,-0.0421,-0.0422,0,0.0183,0.0206,0.0241,0.0253,0.0257,0.026,0.0247,0.0238,0.0159,0.0116,0.0005,-0.0075,-0.0203,-0.0259,-0.0404,-0.0365,-0.0423,-0.0471,-0.047,-0.0495,-0.0436,-0.0441,-0.0441,-0.0434,-0.0433,-0.0432,-0.0431,0,0.0241,0.0265,0.0296,0.0295,0.0304,0.0305,0.0307,0.026,0.0266,0.0167,0.0165,-0.0008,-0.0049,-0.019,-0.0337,-0.0351,-0.0459,-0.0467,-0.051,-0.0507,-0.0526,-0.0523,-0.0568,-0.0568,-0.0568,-0.0567,-0.0567,0,0.0291,0.0317,0.0321,0.0336,0.0388,0.0366,0.0394,0.037,0.0346,0.0372,0.0216,0.0207,-0.0028,-0.0123,-0.029,-0.0422,-0.0414,-0.0548,-0.0526,-0.0501,-0.0495,-0.0543,-0.0539,-0.0568,-0.0568,-0.0568,-0.0568,0,0.0339,0.034,0.0379,0.0398,0.0412,0.0443,0.048,0.05,0.0482,0.0512,0.0498,0.0387,0.0265,0.0042,-0.0151,-0.0307,-0.0463,-0.0498,-0.046,-0.0436,-0.0522,-0.0516,-0.0582,-0.0582,-0.0582,-0.0581,-0.0581,0,0.0364,0.0389,0.0429,0.0464,0.0468,0.0514,0.0562,0.0564,0.0599,0.0634,0.0668,0.0574,0.0505,0.0218,-0.0074,-0.0346,-0.039,-0.0479,-0.0544,-0.0559,-0.053,-0.0524,-0.0518,-0.0531,-0.053,-0.053,-0.0529,0,0.0416,0.0421,0.0456,0.0533,0.0579,0.0646,0.0708,0.077,0.0803,0.085,0.0904,0.0856,0.0601,0.032,-0.003,-0.0223,-0.0455,-0.0478,-0.0488,-0.0526,-0.0512,-0.0482,-0.0478,-0.0526,-0.0526,-0.0526,-0.0526,-0.0527,0.0452,0.0487,0.0533,0.0604,0.0672,0.0769,0.0837,0.0918,0.1016,0.1099,0.1069,0.103,0.0724,0.0268,-0.0051,-0.0386,-0.0392,-0.0528,-0.0529,-0.0531,-0.0515,-0.0501,-0.051,-0.0511,-0.0511,-0.0511,-0.0511,0,0.0497,0.0537,0.0606,0.0691,0.0773,0.0804,0.0935,0.0998,0.1127,0.1209,0.1236,0.0976,0.0679,0.0341,-0.0147,-0.045,-0.0499,-0.0544,-0.0544,-0.0545,-0.0546,-0.0533,-0.0532,-0.0533,-0.0534,-0.0534,0,0,0.0521,0.0589,0.0623,0.076,0.083,0.0955,0.1037,0.1135,0.1212,0.1273,0.1276,0.1207,0.0802,0.0451,0.0035,-0.0242,-0.0329,-0.0304,-0.0257,-0.021,-0.0208,-0.0508,-0.0484,0,0,0,0,0]}],[{"header":{"parameterUnit":"m.s-1","parameterCategory":2,"la1":30.2991,"la2":30.254,"lo1":-89.0895,"lo2":-89.0444,"dy":0.0017,"dx":0.0017,"nx":28,"ny":28,"refTime":"2023-10-29T09:00:00:Z","depth":"4","parameterNumber":2,"parameterNumberName":"U-component_of_CURRENTS"},"data":[0,0,0,0,0,0,0,0,0,0,0,0,0,0,0,0,0,0,0,0,0,0,0,0,0,0,0,0,0,0,0,0,0,0,0,0,0,0,0,0,0,0,0,0,0,0,0,0,0,0,0,0,0,0,0,0,0,0,0.1334,0.1334,0,0.1402,0.1403,0.1403,0.1474,0.1474,0.1475,0.1476,0.1535,0.1536,0.1537,0,0,0,0,0,0,0,0,0,0,0,0,0,0.1253,0.1254,0.1334,0.1334,0.1335,0.1401,0.1403,0.1404,0.1473,0.1474,0.1475,0.1476,0.1535,0.1536,0.1537,0,0,0,0,0,0,0,0,0,0,0,0,0,0.1302,0.1255,0.1333,0.1377,0.1381,0.1401,0.1403,0.1404,0.1473,0.1475,0.1476,0.1477,0.1535,0.1536,0.1537,0.1519,0,0,0.1541,0.1541,0,0,0,0,0,0,0,0,0.1299,0.1305,0.137,0.1374,0.1379,0.1429,0.1396,0.1442,0.1473,0.144,0.1476,0.1478,0.1497,0.1501,0.1514,0.1522,0.1525,0.1541,0.1541,0.1542,0.1542,0,0,0,0,0,0,0,0.1296,0.1303,0.1362,0.137,0.1376,0.1389,0.1398,0.1405,0.1461,0.1443,0.1448,0.1453,0.15,0.1512,0.1515,0.1525,0.1541,0.1542,0.1542,0.1543,0.1654,0.1656,0,0,0,0,0,0,0.1284,0.13,0.136,0.1364,0.134,0.1389,0.1399,0.1413,0.1462,0.147,0.1451,0.1456,0.151,0.1514,0.1518,0.1593,0.1542,0.1543,0.1544,0.1652,0.1655,0.1657,0,0,0,0,0,0,0.1282,0.1289,0.1357,0.1332,0.1341,0.1389,0.1404,0.1414,0.1459,0.1468,0.1477,0.1491,0.1511,0.1516,0.156,0.1592,0.1544,0.1545,0.1649,0.1653,0.1656,0.1683,0,0,0,0,0,0,0.128,0.1288,0.1304,0.1331,0.1342,0.1391,0.1403,0.1414,0.1457,0.1464,0.1504,0.1509,0.1512,0.1559,0.1561,0.1593,0.1546,0.1647,0.1651,0.1655,0.1679,0.1687,0.1693,0,0,0,0,0,0.1277,0.129,0.1305,0.1313,0.136,0.1392,0.14,0.1438,0.1458,0.1483,0.1516,0.1509,0.1588,0.1561,0.1564,0.1596,0.1645,0.165,0.1655,0.1676,0.1685,0.1693,0,0,0,0,0,0,0.1267,0.1299,0.1316,0.1341,0.1374,0.1404,0.1435,0.1454,0.1499,0.1516,0.1526,0.1534,0.159,0.1592,0.1562,0.1646,0.162,0.1626,0.1635,0.1644,0.1651,0.1663,0.1547,0,0,0,0,0,0.1269,0.1286,0.1323,0.1343,0.137,0.1408,0.143,0.1455,0.149,0.1513,0.1541,0.1576,0.1607,0.1625,0.1653,0.1685,0.1697,0.1715,0.1722,0.1727,0.1743,0.1782,0.1793,0.1674,0.1674,0.1674,0,0,0.1269,0.1288,0.1299,0.1342,0.1379,0.1415,0.1427,0.1473,0.15,0.1509,0.1572,0.1602,0.1624,0.1672,0.1697,0.1679,0.177,0.1734,0.1738,0.1751,0.1788,0.1799,0.1809,0.1677,0.1677,0.1676,0,0,0.1275,0.1306,0.133,0.136,0.1412,0.1436,0.1455,0.1509,0.1541,0.1589,0.1613,0.1663,0.1706,0.1732,0.1745,0.1807,0.1809,0.1826,0.1864,0.1901,0.191,0.1919,0.1951,0.1962,0.1825,0.1825,0.1825,0,0.1281,0.131,0.1343,0.1377,0.1405,0.1449,0.1488,0.152,0.1577,0.1607,0.1619,0.1716,0.1733,0.1788,0.1821,0.1821,0.1846,0.1821,0.1907,0.1916,0.1924,0.1955,0.1967,0.1827,0.1826,0.1826,0.1826,0,0.13,0.1336,0.136,0.1415,0.1449,0.1488,0.1535,0.1582,0.1624,0.1656,0.1737,0.1772,0.183,0.1847,0.1853,0.1929,0.193,0.1911,0.1877,0.1937,0.1967,0.1979,0.1829,0.1829,0.1828,0.1828,0,0,0.1291,0.136,0.1373,0.1403,0.1473,0.15,0.1559,0.1622,0.167,0.173,0.1794,0.186,0.1897,0.1918,0.1939,0.1978,0.2055,0.198,0.1981,0.1998,0.2148,0.2049,0.2052,0.2053,0.2055,0.2057,0.2144,0,0.1309,0.1362,0.1396,0.1456,0.1495,0.1549,0.1598,0.1656,0.1715,0.1788,0.1837,0.1915,0.1914,0.1964,0.2,0.2054,0.2089,0.2034,0.21,0.2103,0.1995,0.2063,0.2064,0.2153,0.2155,0.2157,0.2159,0,0.1321,0.1355,0.1412,0.1482,0.151,0.1552,0.1645,0.1697,0.1794,0.1846,0.1923,0.1971,0.206,0.2044,0.2148,0.2119,0.2145,0.2169,0.2172,0.208,0.2026,0.2083,0.218,0.2178,0.2177,0.2175,0.2174,0,0.1287,0.1366,0.1407,0.143,0.1518,0.1563,0.1626,0.1724,0.1781,0.1903,0.1967,0.2053,0.2126,0.2173,0.2237,0.2207,0.2341,0.229,0.2219,0.2213,0.226,0.225,0.2355,0.2355,0.2355,0.2355,0.2354,0,0.1272,0.1311,0.1399,0.1419,0.1486,0.1561,0.1649,0.1722,0.1836,0.1911,0.2008,0.2079,0.2169,0.2248,0.2273,0.2296,0.2368,0.2248,0.2235,0.2271,0.2261,0.2268,0.2257,0.2358,0.2357,0.2356,0.2356,0,0.1223,0.1279,0.1329,0.1428,0.147,0.1521,0.1659,0.1713,0.1845,0.1948,0.1998,0.213,0.2243,0.2316,0.2408,0.234,0.2373,0.2358,0.2419,0.2405,0.2206,0.2196,0.2272,0.2269,0.2267,0.2265,0.2263,0,0.1196,0.1218,0.1324,0.1358,0.1409,0.1505,0.1566,0.1703,0.1758,0.1964,0.1994,0.2162,0.2238,0.2287,0.2368,0.2411,0.2381,0.2363,0.2257,0.2222,0.2201,0.2194,0.2187,0.226,0.2259,0.2259,0.2258,0,0.1145,0.1191,0.1234,0.1309,0.1372,0.1437,0.1539,0.1571,0.173,0.1861,0.1958,0.2034,0.2157,0.2223,0.2286,0.2303,0.2353,0.2338,0.2341,0.2241,0.2208,0.2188,0.2184,0.225,0.2251,0.2252,0.2253,0,0.1111,0.1125,0.119,0.1244,0.1319,0.1353,0.1416,0.1492,0.1572,0.1781,0.1813,0.2,0.2135,0.2171,0.223,0.2249,0.22,0.2095,0.211,0.2119,0.2031,0.1964,0.1938,0,0,0,0,0,0.1075,0.1081,0.1123,0.1172,0.1239,0.1285,0.1387,0.1448,0.1598,0.162,0.1713,0.1825,0.1933,0.2024,0.2015,0.2167,0.2207,0.2146,0.2092,0.2207,0.2216,0.2127,0,0,0,0,0,0,0.1047,0.1084,0.1094,0.1103,0.1124,0.1187,0.1246,0.1341,0.1358,0.1521,0.1589,0.1715,0.1846,0.1931,0.1984,0.2011,0.1939,0.2257,0.2252,0.2202,0.221,0.2218,0.2129,0,0,0,0,0]},{"header":{"parameterUnit":"m.s-1","parameterCategory":2,"la1":30.2991,"la2":30.254,"lo1":-89.0895,"lo2":-89.0444,"dy":0.0017,"dx":0.0017,"nx":28,"ny":28,"refTime":"2023-10-29T09:00:00:Z","depth":"4","parameterNumber":3,"parameterNumberName":"V-component_of_CURRENTS"},"data":[0,0,0,0,0,0,0,0,0,0,0,0,0,0,0,0,0,0,0,0,0,0,0,0,0,0,0,0,0,0,0,0,0,0,0,0,0,0,0,0,0,0,0,0,0,0,0,0,0,0,0,0,0,0,0,0,0,0,0.0241,0.024,0,0.0178,0.0178,0.0177,0.0135,0.0135,0.0135,0.0135,0.0057,0.0055,0.0053,0,0,0,0,0,0,0,0,0,0,0,0,0,0.0264,0.0264,0.0241,0.024,0.0239,0.0178,0.0178,0.0177,0.0135,0.0135,0.0135,0.0135,0.0057,0.0055,0.0053,0,0,0,0,0,0,0,0,0,0,0,0,0,0.0233,0.0265,0.0241,0.0212,0.0209,0.0179,0.0178,0.0176,0.0135,0.0135,0.0135,0.0135,0.0058,0.0055,0.0052,0.0041,0,0,0.0044,0.0043,0,0,0,0,0,0,0,0,0.0235,0.0232,0.0217,0.0214,0.021,0.0165,0.0157,0.0131,0.0136,0.0163,0.0135,0.0134,0.0092,0.0087,0.0075,0.0037,0.0034,0.0044,0.0042,0.0041,0.004,0,0,0,0,0,0,0,0.0237,0.0234,0.0215,0.0216,0.0212,0.0182,0.0177,0.0152,0.0129,0.016,0.0157,0.0152,0.009,0.0077,0.0072,0.0033,0.0044,0.0041,0.0039,0.0038,-0.0019,-0.0019,0,0,0,0,0,0,0.025,0.0236,0.0217,0.0213,0.0223,0.0182,0.0177,0.0179,0.0129,0.0122,0.0152,0.015,0.0082,0.0076,0.0069,0.0074,0.0041,0.0038,0.0036,-0.0019,-0.0019,-0.0019,0,0,0,0,0,0,0.0251,0.0249,0.022,0.0223,0.0218,0.0182,0.0185,0.0178,0.0166,0.0124,0.0115,0.0147,0.0082,0.0073,0.0054,0.007,0.0037,0.0034,-0.002,-0.0019,-0.0019,0.0069,0,0,0,0,0,0,0.0252,0.025,0.0254,0.0225,0.0218,0.0207,0.0185,0.0177,0.0163,0.016,0.0117,0.0109,0.0081,0.0058,0.0051,0.0065,0.0032,-0.002,-0.002,-0.0019,0.0066,0.0072,0.0078,0,0,0,0,0,0.0253,0.026,0.0255,0.0252,0.0226,0.0208,0.0202,0.0174,0.0164,0.0161,0.0135,0.011,0.0055,0.0056,0.0048,0.0062,-0.002,-0.002,-0.0019,0.0063,0.0071,0.0078,0,0,0,0,0,0,0.0265,0.0256,0.0249,0.0251,0.0234,0.0201,0.0194,0.0179,0.0156,0.0154,0.0114,0.0105,0.0091,0.0061,0.0064,0.0043,0.0012,0.0011,0.0078,0.0085,0.0091,0.0117,0.003,0,0,0,0,0,0.0273,0.0283,0.0261,0.0264,0.0256,0.0227,0.0216,0.0201,0.0177,0.0167,0.0138,0.0107,0.0086,0.0074,0.0045,0.0037,0.0001,0.0038,0.0044,0.0049,0.0063,0.0029,0.0034,-0.0018,-0.0018,-0.0018,0,0,0.0281,0.0276,0.0282,0.0268,0.0251,0.0249,0.0219,0.0209,0.0214,0.0162,0.0157,0.0125,0.0086,0.0078,0.0069,0.0057,0.004,0.005,0.0055,0.0066,0.003,0.0035,0.004,-0.0017,-0.0018,-0.0018,0,0,0.0296,0.0295,0.0303,0.0296,0.0279,0.0265,0.0266,0.0238,0.0232,0.0223,0.019,0.0175,0.0133,0.0119,0.0104,0.0124,0.007,0.0106,0.0164,0.0131,0.0135,0.0138,0.0084,0.0082,0.0114,0.0114,0.0114,0,0.0301,0.0313,0.0301,0.0303,0.0304,0.0278,0.0284,0.0277,0.0249,0.0255,0.0231,0.0191,0.0157,0.0161,0.0169,0.0141,0.0102,0.0145,0.0141,0.0143,0.0145,0.0089,0.0086,0.0118,0.0118,0.0117,0.0117,0,0.0318,0.033,0.0333,0.0337,0.0335,0.0339,0.033,0.0332,0.0322,0.0314,0.0311,0.027,0.0247,0.0234,0.021,0.0214,0.0173,0.0151,0.0129,0.0156,0.0094,0.0089,0.0124,0.0123,0.0121,0.012,0,0,0.0322,0.0343,0.0345,0.036,0.0358,0.036,0.0379,0.0389,0.0405,0.0387,0.0399,0.0376,0.0353,0.0336,0.03,0.0282,0.0257,0.0231,0.0227,0.0189,0.0165,0.0111,0.0099,0.0234,0.0234,0.0234,0.011,0,0.0336,0.0363,0.0368,0.0399,0.0412,0.0413,0.0437,0.0448,0.0442,0.0447,0.0429,0.0417,0.0392,0.0376,0.036,0.0278,0.0251,0.0292,0.0134,0.0129,0.0088,0.0094,0.0234,0.0106,0.0105,0.0104,0.0103,0,0.0345,0.0367,0.0402,0.0445,0.0451,0.0469,0.0504,0.0519,0.053,0.0526,0.0523,0.0489,0.047,0.0432,0.0337,0.0362,0.0277,0.0215,0.0208,0.0128,0.0067,0.0074,0.0094,0.0094,0.0095,0.0096,0.0096,0,0.0355,0.0391,0.0427,0.0439,0.0479,0.0504,0.0525,0.0546,0.057,0.0567,0.0569,0.054,0.0505,0.0427,0.0302,0.0315,0.0173,0.0166,0.0039,0.0032,0.008,0.0078,0.0097,0.0097,0.0097,0.0097,0.0098,0,0.0367,0.0397,0.0439,0.046,0.0513,0.0529,0.0578,0.0594,0.0615,0.0642,0.0608,0.0599,0.0501,0.0409,0.0308,0.015,0.017,0.005,0.0004,0.0116,0.0119,0.0075,0.0074,0.0093,0.0094,0.0095,0.0096,0,0.037,0.0397,0.0442,0.0497,0.0519,0.0555,0.0617,0.065,0.0661,0.0686,0.0686,0.063,0.0506,0.0383,0.0222,0.0138,0.0001,-0.0066,0.0044,0.0004,-0.0118,-0.0113,-0.0202,-0.0205,-0.0207,-0.0209,-0.0211,0,0.0374,0.0398,0.0467,0.05,0.0527,0.0585,0.0631,0.0671,0.07,0.0702,0.071,0.0603,0.0544,0.0284,0.0148,-0.0067,-0.0095,-0.0172,-0.011,-0.0109,-0.0146,-0.0137,-0.0129,-0.0215,-0.0215,-0.0216,-0.0217,0,0.0381,0.0405,0.0444,0.0513,0.0568,0.0631,0.0691,0.0718,0.0756,0.0767,0.0721,0.0602,0.0443,0.0266,0.0075,-0.0067,-0.0114,-0.0196,-0.0191,-0.0134,-0.0125,-0.0157,-0.0147,-0.0225,-0.0224,-0.0223,-0.0222,0,0.0384,0.0409,0.046,0.052,0.0588,0.0651,0.0691,0.0723,0.0755,0.0761,0.0734,0.059,0.0509,0.0261,0.0097,-0.0064,-0.0086,-0.0114,-0.0113,-0.0106,-0.0038,-0.001,-0.0112,0,0,0,0,0,0.0383,0.0409,0.0464,0.0528,0.0596,0.0639,0.0719,0.0753,0.0789,0.0763,0.0755,0.0614,0.0372,0.0268,0.0098,0.0045,-0.0125,-0.0161,-0.0159,-0.027,-0.0261,-0.0201,0,0,0,0,0,0,0.0379,0.0425,0.0454,0.0522,0.0566,0.0644,0.07,0.0732,0.0718,0.0731,0.0605,0.0561,0.0321,0.046,0.0088,0.0039,0.0016,-0.0269,-0.0273,-0.0276,-0.0267,-0.0259,-0.0195,0,0,0,0,0]}]]